| time (UTC) | temp F | wind direction | speed knots | gust knots | rain 1hr in | rain 24hr in | rain mn in | humidity % | barometer mb |
| 20260506113058 | 60 | 149 | 1.7 | 7.8 | 0.00 | 0.00 | 0.00 | 86 | 1010.0 |
| 20260506111557 | 60 | 205 | 0.9 | 7.8 | 0.00 | 0.00 | 0.00 | 83 | 1010.1 |
| 20260506110058 | 61 | 187 | 1.7 | 7.0 | 0.00 | 0.00 | 0.00 | 80 | 1010.1 |
| 20260506104600 | 61 | 261 | 2.6 | 8.7 | 0.00 | 0.00 | 0.00 | 77 | 1009.8 |
| 20260506103100 | 61 | 195 | 4.3 | 10.4 | 0.00 | 0.00 | 0.00 | 76 | 1009.7 |
| 20260506101557 | 61 | 139 | 1.7 | 6.1 | 0.00 | 0.00 | 0.00 | 76 | 1009.6 |
| 20260506100057 | 61 | 207 | 1.7 | 5.2 | 0.00 | 0.00 | 0.00 | 75 | 1009.5 |
| 20260506094600 | 61 | 171 | 0.0 | 1.7 | 0.00 | 0.00 | 0.00 | 74 | 1009.6 |
| 20260506093113 | 62 | 0 | 0.0 | 5.2 | 0.00 | 0.00 | 0.00 | 72 | 1009.8 |
| 20260506091558 | 62 | 187 | 0.9 | 5.2 | 0.00 | 0.00 | 0.00 | 71 | 1009.7 |
| 20260506090121 | 61 | 187 | 1.7 | 5.2 | 0.00 | 0.00 | 0.00 | 71 | 1009.7 |
| 20260506084558 | 61 | 161 | 0.9 | 5.2 | 0.00 | 0.03 | 0.00 | 70 | 1009.8 |
| 20260506083058 | 62 | 0 | 0.9 | 4.3 | 0.00 | 0.03 | 0.00 | 69 | 1009.8 |
| 20260506081557 | 62 | 178 | 1.7 | 5.2 | 0.00 | 0.03 | 0.00 | 67 | 1009.8 |
| 20260506080110 | 62 | 145 | 1.7 | 5.2 | 0.00 | 0.03 | 0.00 | 66 | 1009.8 |
| 20260506073111 | 63 | 186 | 0.9 | 7.0 | 0.00 | 0.14 | 0.00 | 65 | 1010.0 |
| 20260506071557 | 62 | 159 | 0.9 | 3.5 | 0.00 | 0.14 | 0.00 | 65 | 1010.1 |
| 20260506061604 | 64 | 184 | 1.7 | 7.8 | 0.00 | 0.14 | 0.00 | 61 | 1010.6 |
| 20260506050104 | 64 | 276 | 0.9 | 7.8 | 0.00 | 0.14 | 0.00 | 58 | 1011.1 |
| 20260506044611 | 64 | 305 | 0.9 | 8.7 | 0.00 | 0.14 | 0.00 | 60 | 1011.1 |
| 20260506043059 | 64 | 0 | 0.9 | 6.1 | 0.00 | 0.14 | 0.00 | 59 | 1011.2 |
| 20260506041610 | 64 | 180 | 0.9 | 7.8 | 0.00 | 0.14 | 0.00 | 58 | 1011.2 |
| 20260506040104 | 64 | 159 | 0.0 | 7.0 | 0.00 | 0.14 | 0.00 | 56 | 1011.2 |
| 20260506034602 | 64 | 139 | 0.0 | 2.6 | 0.00 | 0.14 | 0.14 | 55 | 1011.2 |
| 20260506033059 | 66 | 0 | 0.9 | 6.1 | 0.00 | 0.14 | 0.14 | 53 | 1011.1 |
| 20260506031600 | 66 | 164 | 0.0 | 4.3 | 0.00 | 0.14 | 0.14 | 50 | 1011.2 |
| 20260506024608 | 67 | 180 | 1.7 | 7.0 | 0.00 | 0.14 | 0.14 | 48 | 1011.2 |
| 20260506023102 | 68 | 176 | 1.7 | 6.1 | 0.00 | 0.14 | 0.14 | 46 | 1011.3 |
| 20260506021558 | 69 | 148 | 2.6 | 7.8 | 0.00 | 0.14 | 0.14 | 45 | 1011.2 |
| 20260506020123 | 70 | 182 | 1.7 | 11.3 | 0.00 | 0.14 | 0.14 | 44 | 1011.2 |
| 20260506014559 | 70 | 160 | 1.7 | 8.7 | 0.00 | 0.14 | 0.14 | 45 | 1011.0 |
| 20260506013057 | 71 | 0 | 2.6 | 10.4 | 0.00 | 0.14 | 0.14 | 45 | 1010.9 |
| 20260506011600 | 71 | 222 | 1.7 | 10.4 | 0.00 | 0.14 | 0.14 | 44 | 1010.6 |
| 20260506010104 | 71 | 156 | 3.5 | 11.3 | 0.00 | 0.14 | 0.14 | 44 | 1010.4 |
| 20260506004600 | 71 | 173 | 4.3 | 11.3 | 0.00 | 0.14 | 0.14 | 46 | 1010.2 |
| 20260506003058 | 71 | 225 | 3.5 | 11.3 | 0.00 | 0.14 | 0.14 | 47 | 1010.3 |
| 20260506001607 | 72 | 186 | 2.6 | 11.3 | 0.00 | 0.14 | 0.14 | 45 | 1010.2 |
| 20260506000123 | 72 | 201 | 2.6 | 8.7 | 0.00 | 0.14 | 0.14 | 46 | 1010.1 |
| 20260505234616 | 72 | 158 | 3.5 | 12.2 | 0.00 | 0.14 | 0.14 | 44 | 1009.9 |
| 20260505233100 | 73 | 199 | 1.7 | 17.4 | 0.00 | 0.14 | 0.14 | 43 | 1009.8 |
| 20260505231603 | 74 | 0 | 0.0 | 0.0 | 0.00 | 0.14 | 0.14 | 41 | 1009.7 |
| 20260505230100 | 74 | 0 | 0.0 | 0.0 | 0.00 | 0.14 | 0.14 | 40 | 1009.4 |
| 20260505224559 | 75 | 0 | 0.0 | 0.0 | 0.00 | 0.14 | 0.14 | 39 | 1009.6 |
| 20260505223105 | 75 | 0 | 0.0 | 15.6 | 0.00 | 0.14 | 0.14 | 37 | 1009.4 |
| 20260505221603 | 76 | 157 | 6.1 | 13.9 | 0.00 | 0.14 | 0.14 | 36 | 1009.3 |
| 20260505220108 | 76 | 213 | 3.5 | 13.0 | 0.00 | 0.14 | 0.14 | 36 | 1009.4 |
| 20260505214610 | 76 | 0 | 0.0 | 13.0 | 0.00 | 0.14 | 0.14 | 37 | 1009.1 |
| 20260505213058 | 75 | 180 | 3.5 | 10.4 | 0.00 | 0.14 | 0.14 | 38 | 1009.3 |
| 20260505211634 | 76 | 0 | 0.9 | 14.8 | 0.00 | 0.14 | 0.14 | 38 | 1009.1 |
| 20260505210059 | 76 | 193 | 5.2 | 15.6 | 0.00 | 0.14 | 0.14 | 39 | 1009.3 |
| 20260505204605 | 76 | 271 | 6.1 | 13.9 | 0.00 | 0.14 | 0.14 | 38 | 1009.2 |
| 20260505203100 | 77 | 168 | 3.5 | 20.0 | 0.00 | 0.14 | 0.14 | 38 | 1009.3 |
| 20260505201558 | 78 | 262 | 4.3 | 13.0 | 0.00 | 0.14 | 0.14 | 35 | 1009.4 |
| 20260505200058 | 78 | 185 | 2.6 | 14.8 | 0.00 | 0.14 | 0.14 | 40 | 1009.1 |
| 20260505194600 | 78 | 225 | 2.6 | 12.2 | 0.00 | 0.14 | 0.14 | 39 | 1009.3 |
| 20260505193058 | 77 | 237 | 4.3 | 19.1 | 0.00 | 0.14 | 0.14 | 37 | 1009.8 |
| 20260505191605 | 77 | 191 | 5.2 | 18.2 | 0.00 | 0.14 | 0.14 | 36 | 1009.6 |
| 20260505190114 | 78 | 203 | 5.2 | 14.8 | 0.00 | 0.14 | 0.14 | 37 | 1010.1 |
| 20260505184600 | 77 | 232 | 2.6 | 13.9 | 0.00 | 0.14 | 0.14 | 42 | 1010.3 |
| 20260505183058 | 77 | 217 | 5.2 | 13.0 | 0.00 | 0.14 | 0.14 | 37 | 1010.4 |
| 20260505181641 | 77 | 260 | 2.6 | 10.4 | 0.00 | 0.14 | 0.14 | 39 | 1010.5 |
| 20260505180105 | 78 | 260 | 5.2 | 12.2 | 0.00 | 0.14 | 0.14 | 40 | 1010.6 |
| 20260505174600 | 77 | 0 | 2.6 | 21.7 | 0.00 | 0.14 | 0.14 | 49 | 1010.7 |
| 20260505173059 | 77 | 210 | 0.9 | 13.0 | 0.00 | 0.14 | 0.14 | 40 | 1010.9 |
| 20260505171605 | 77 | 167 | 3.5 | 10.4 | 0.00 | 0.14 | 0.14 | 42 | 1011.0 |
| 20260505170059 | 77 | 151 | 4.3 | 13.9 | 0.00 | 0.14 | 0.14 | 46 | 1011.1 |
| 20260505164559 | 76 | 166 | 2.6 | 7.8 | 0.00 | 0.14 | 0.14 | 49 | 1011.2 |
| 20260505163100 | 75 | 250 | 0.9 | 4.3 | 0.00 | 0.14 | 0.14 | 48 | 1011.4 |
| 20260505161558 | 75 | 191 | 0.9 | 9.6 | 0.00 | 0.14 | 0.14 | 49 | 1011.7 |
| 20260505153100 | 73 | 327 | 2.6 | 7.8 | 0.00 | 0.14 | 0.14 | 51 | 1012.0 |
| 20260505151603 | 73 | 146 | 0.9 | 6.1 | 0.00 | 0.14 | 0.14 | 53 | 1012.0 |
| 20260505140109 | 67 | 207 | 2.6 | 8.7 | 0.00 | 0.14 | 0.14 | 64 | 1012.4 |
| 20260505124600 | 62 | 212 | 0.0 | 6.1 | 0.00 | 0.14 | 0.14 | 72 | 1012.8 |
| 20260505123111 | 61 | 0 | 0.9 | 6.1 | 0.00 | 0.14 | 0.14 | 74 | 1012.6 |
| 20260505121600 | 60 | 185 | 0.0 | 2.6 | 0.00 | 0.14 | 0.14 | 76 | 1012.2 |
| 20260505120128 | 59 | 163 | 0.9 | 5.2 | 0.00 | 0.14 | 0.14 | 80 | 1012.3 |
| 20260505114559 | 57 | 0 | 0.0 | 0.0 | 0.00 | 0.14 | 0.14 | 81 | 1012.2 |